This is the latest recevied weather packets stored in our database for station/object AB0TJ. If no packets are shown the sender has not sent any weather packets the latest 10 day(s).
| Time | Temp. | Humidity | Pressure | Rain* | Wind** | Luminosity | Snow |
|---|---|---|---|---|---|---|---|
| 1777764499 | 25° C | 17% | 1016.5 hPa | 0 mm | - | 388 W/m² | - |
| 1777761319 | 24.44° C | 17% | 1017.3 hPa | 0 mm | - | 547 W/m² | - |
| 1777760734 | 23.89° C | 17% | 1017.3 hPa | 0 mm | - | 573 W/m² | - |
| 1777759604 | 23.89° C | 17% | 1017.6 hPa | 0 mm | - | 617 W/m² | - |
| 1777757829 | 22.78° C | 19% | 1018.6 hPa | 0 mm | - | 684 W/m² | - |
| 1777756739 | 22.78° C | 19% | 1018.8 hPa | 0 mm | - | 719 W/m² | - |
| 1777756239 | 22.78° C | 20% | 1019.1 hPa | 0 mm | - | 734 W/m² | - |
| 1777755689 | 22.22° C | 20% | 1019.1 hPa | 0 mm | - | 750 W/m² | - |
| 1777754593 | 22.22° C | 21% | 1019.4 hPa | 0 mm | - | 777 W/m² | - |
| 1777753509 | 22.22° C | 21% | 1019.7 hPa | 0 mm | - | 797 W/m² | - |
| 1777752924 | 22.22° C | 20% | 1019.6 hPa | 0 mm | - | 807 W/m² | - |
| 1777752372 | 21.67° C | 20% | 1019.8 hPa | 0 mm | - | 816 W/m² | - |
| 1777750714 | 21.11° C | 20% | 1020 hPa | 0 mm | - | 828 W/m² | - |
| 1777750168 | 21.67° C | 21% | 1020 hPa | 0 mm | - | 827 W/m² | - |
| 1777749655 | 21.11° C | 21% | 1020.2 hPa | 0 mm | - | 826 W/m² | - |
| 1777747463 | 20.56° C | 23% | 1020.8 hPa | 0 mm | - | 814 W/m² | - |
| 1777746884 | 20.56° C | 22% | 1020.7 hPa | 0 mm | - | 806 W/m² | - |
| 1777746299 | 20.56° C | 23% | 1021.1 hPa | 0 mm | - | 797 W/m² | - |
| 1777744109 | 20° C | 25% | 1021.6 hPa | 0 mm | - | 754 W/m² | - |
| 1777743010 | 19.44° C | 27% | 1022 hPa | 0 mm | - | 726 W/m² | - |
| 1777740389 | 19.44° C | 26% | 1022.2 hPa | 0 mm | - | 637 W/m² | - |
| 1777739902 | 18.33° C | 28% | 1022.2 hPa | 0 mm | - | 619 W/m² | - |
| 1777739319 | 17.78° C | 28% | 1022.4 hPa | 0 mm | - | 595 W/m² | - |
| 1777738744 | 17.78° C | 28% | 1022.3 hPa | 0 mm | - | 569 W/m² | - |
| 1777738168 | 17.78° C | 29% | 1022.2 hPa | 0 mm | - | 543 W/m² | - |
* Rain latest hour (hover to see other rain measurements)
** Current wind speed in m/s (hover to see current wind gust speed)